This is the latest recevied weather packets stored in our database for station/object SQ8AQL-16. If no packets are shown the sender has not sent any weather packets the latest 10 day(s).
| Time | Temp. | Humidity | Pressure | Rain* | Wind** | Luminosity | Snow |
|---|---|---|---|---|---|---|---|
| 1777995315 | 27.78° C | 18% | 1009.4 hPa | - | - | 97 W/m² | - |
| 1777993513 | 30.56° C | 16% | 1009.4 hPa | - | - | 297 W/m² | - |
| 1777991711 | 30.56° C | 16% | 1009.5 hPa | - | - | 297 W/m² | - |
| 1777990810 | 31.67° C | 17% | 1009.7 hPa | - | - | 367 W/m² | - |
| 1777989909 | 31.67° C | 16% | 1009.7 hPa | - | - | 314 W/m² | - |
| 1777988107 | 31.67° C | 15% | 1010.1 hPa | - | - | 429 W/m² | - |
| 1777987206 | 33.33° C | 16% | 1010.2 hPa | - | - | 551 W/m² | - |
| 1777984503 | 31.11° C | 17% | 1010.9 hPa | - | - | 759 W/m² | - |
| 1777983602 | 32.22° C | 15% | 1011.1 hPa | - | - | 795 W/m² | - |
| 1777982701 | 32.22° C | 15% | 1011.2 hPa | - | - | 795 W/m² | - |
| 1777981800 | 32.22° C | 16% | 1011.4 hPa | - | - | 839 W/m² | - |
| 1777980899 | 31.67° C | 17% | 1011.6 hPa | - | - | 878 W/m² | - |
| 1777979997 | 31.11° C | 18% | 1011.7 hPa | - | - | 904 W/m² | - |
| 1777977294 | 28.89° C | 17% | 1012.2 hPa | - | - | 789 W/m² | - |
| 1777976393 | 29.44° C | 17% | 1012.4 hPa | - | - | 612 W/m² | - |
| 1777975492 | 28.89° C | 19% | 1012.6 hPa | - | - | 754 W/m² | - |
| 1777974591 | 26.67° C | 21% | 1012.7 hPa | - | - | 741 W/m² | - |
| 1777973690 | 24.44° C | 24% | 1012.9 hPa | - | - | 50 W/m² | - |
| 1777972789 | 24.44° C | 24% | 1013.1 hPa | - | - | 50 W/m² | - |
| 1777971888 | 23.89° C | 24% | 1013.1 hPa | - | - | 46 W/m² | - |
| 1777970987 | 23.89° C | 27% | 1013.3 hPa | - | - | 41 W/m² | - |
| 1777970085 | 23.33° C | 28% | 1013.5 hPa | - | - | 40 W/m² | - |
| 1777969184 | 22.78° C | 29% | 1013.5 hPa | - | - | 37 W/m² | - |
| 1777968283 | 22.22° C | 31% | 1013.7 hPa | - | - | 33 W/m² | - |
| 1777967382 | 21.11° C | 32% | 1013.9 hPa | - | - | 30 W/m² | - |
* Rain since midnight (hover to see other rain measurements)
** Current wind speed in m/s (hover to see current wind gust speed)